Home > Weather > Tonk > Past weeks

Flag for India Past Weather in Tonk, Rajasthan, India — Yesterday and Last 2 Weeks

Now
79 °F

Mostly cloudy.


Feels Like: 82 °F
Forecast: 79 / 90 °F
Wind: 3 mph from East

Location: Jaipur / Sanganer

Current Time: Aug 29, 2016 at 12:24:42 AM

Latest Report: Aug 28, 2016 at 11:30 PM


Visibility: 2 mi

Pressure: 29.74 "Hg

Humidity: 89%

Dew Point: 75 °F

Location of TonkLocation

Past Weather in Tonk — Graph

°F

Tonk Temperature Yesterday

Maximum temperature yesterday: 86 °F (at 3:00 PM)
Minimum temperature yesterday: 73 °F (at 8:00 AM)
Average temperature yesterday: 80 °F

High & Low Weather Summary for the Past Weeks

 TemperatureHumidityPressure
High91 °F (Aug 26, 4:30 PM)100% (Aug 14, 5:00 AM)29.92 "Hg (Aug 14, 5:00 AM)
Low73 °F (Aug 28, 8:00 AM)59% (Aug 16, 4:00 PM)29.50 "Hg (Aug 20, 3:00 PM)
Average82 °F83%29.64 "Hg
* Reported Aug 13 11:30 PM — Aug 28 11:00 PM, Tonk, Weather by CustomWeather, © 2016

Note: Actual official high and low records may vary slightly from our data, if they occured in-between our weather recording intervals... More about our weather records

Advertising

Tonk Weather History for the Previous 24 Hours

Scroll right to see more
 ConditionsComfort  
Time TempWeatherWind HumidityBarometerVisibility
11:00 PM
Sun, Aug 28
79 °FMostly cloudy.5 mph89%29.74 "Hg2 mi
10:30 PM79 °FMostly cloudy.6 mph89%29.74 "Hg2 mi
9:30 PM79 °FThunderstorms. Mostly cloudy.5 mph89%29.77 "Hg2 mi
9:00 PM79 °FThunderstorms. Partly cloudy.3 mph89%29.77 "Hg2 mi
8:30 PM79 °FThunderstorms. Mostly cloudy.8 mph89%29.77 "Hg2 mi
7:30 PM82 °FThunderstorms. Partly cloudy.No wind89%29.74 "Hg2 mi
7:00 PM82 °FFog.No wind89%29.74 "Hg2 mi
6:30 PM84 °FBroken clouds.No wind84%29.71 "Hg3 mi
6:00 PM84 °FBroken clouds.2 mph79%29.71 "Hg3 mi
5:30 PM84 °FBroken clouds.No wind74%29.71 "Hg3 mi
5:00 PM84 °FBroken clouds.2 mph79%29.71 "Hg3 mi
4:00 PM84 °FBroken clouds.3 mph84%29.71 "Hg2 mi
3:30 PM84 °FDrizzle. Broken clouds.7 mph84%29.71 "Hg2 mi
3:00 PM86 °FBroken clouds.6 mph79%29.74 "Hg2 mi
2:30 PM84 °FFog.2 mph84%29.74 "Hg2 mi
2:00 PM84 °FFog.5 mph89%29.74 "Hg2 mi
1:30 PM82 °FDrizzle. More clouds than sun.No wind89%29.77 "Hg2 mi
1:00 PM81 °FDrizzle. More clouds than sun.1 mph94%29.77 "Hg2 mi
12:30 PM81 °FDrizzle. More clouds than sun.No wind94%29.77 "Hg2 mi
12:00 PM79 °FDrizzle. More clouds than sun.No wind94%29.80 "Hg2 mi
11:30 AM79 °FDrizzle. More clouds than sun.No wind94%29.80 "Hg2 mi
11:00 AM79 °FDrizzle. More clouds than sun.No wind94%29.83 "Hg2 mi
10:30 AM77 °FDrizzle. More clouds than sun.No wind94%29.83 "Hg2 mi
10:00 AM75 °FThunderstorms. More clouds than sun.6 mph100%29.83 "Hg2 mi
9:30 AM75 °FThunderstorms. More clouds than sun.No wind100%29.83 "Hg2 mi
9:00 AM75 °FThunderstorms. More clouds than sun.No wind94%29.83 "Hg2 mi
8:30 AM75 °FThunderstorms. More clouds than sun.2 mph94%29.80 "Hg1 mi
8:00 AM73 °FThunderstorms. Broken clouds.No wind100%29.83 "HgN/A
7:00 AM79 °FFog.8 mph89%29.80 "Hg2 mi
6:00 AM81 °FPassing clouds.3 mph94%29.77 "Hg3 mi
5:30 AM79 °FPassing clouds.7 mph100%29.74 "Hg3 mi
5:00 AM81 °FPassing clouds.2 mph94%29.74 "Hg3 mi
4:00 AM81 °FPassing clouds.No wind94%29.74 "Hg3 mi
2:30 AM81 °FPassing clouds.1 mph89%29.77 "Hg3 mi
1:30 AM81 °FThunderstorms. Passing clouds.5 mph89%29.77 "Hg3 mi
1:00 AM82 °FPassing clouds.6 mph84%29.77 "Hg3 mi
12:00 AM82 °FPassing clouds.6 mph84%29.77 "Hg3 mi
Weather by CustomWeather, © 2016

See weather overviewHow to use our weather pages